{"data":{"norad_id":47563,"intl_designator":"2021-009R","name":"STARLINK-1962","alt_names":[],"object_type":"PAYLOAD","status":"ACTIVE","operator":null,"country":"US","launch_date":"2021-02-04","launch_site_code":"AFETR","launch_vehicle":null,"mission":null,"orbit_class":"UNKNOWN","rcs_meters":null,"size_class":null,"mass_kg":null,"dimensions":null,"purposes":["comms"],"wikipedia_slug":null,"has_3d_model":false,"image_url":null,"decayed_at":null,"tle_current":{"epoch":"2026-05-24T21:55:11.808768Z","epoch_age_seconds":85711,"freshness":"FRESH","line1":"1 47563U 21009R   26144.91333112  .00142754  00000+0  79017-3 0  9996","line2":"2 47563  53.0409 339.3879 0002349 282.8647  77.2111 15.78667296293128","mean_motion":15.78667296,"eccentricity":0.0002349,"inclination_deg":53.0409,"raan_deg":339.3879,"arg_perigee_deg":282.8647,"mean_anomaly_deg":77.2111,"bstar":0.00079017,"rev_number":29312,"period_min":91.216179853009,"perigee_km":332.63894031299,"apogee_km":335.79240359827,"semimajor_km":6712.3526719556,"source":"CELESTRAK","updated_at":"2026-05-25T13:38:16.556597Z"}}}